This is the latest recevied weather packets stored in our database for station/object KA9CBS. If no packets are shown the sender has not sent any weather packets the latest 10 day(s).
| Time | Temp. | Humidity | Pressure | Rain* | Wind** | Luminosity | Snow |
|---|---|---|---|---|---|---|---|
| 1787872803 | 27.22° C | 60% | 1017.5 hPa | 0 mm | - | 43 W/m² | - |
| 1787872499 | 27.22° C | 59% | 1017.5 hPa | 0 mm | - | 40 W/m² | - |
| 1787872194 | 27.22° C | 58% | 1017.4 hPa | 0 mm | - | 43 W/m² | - |
| 1787871893 | 27.78° C | 59% | 1017.7 hPa | 0 mm | - | 43 W/m² | - |
| 1787871588 | 27.78° C | 57% | 1017.6 hPa | 0 mm | - | 44 W/m² | - |
| 1787871284 | 27.78° C | 57% | 1017.6 hPa | 0 mm | - | 61 W/m² | - |
| 1787870983 | 27.78° C | 57% | 1017.5 hPa | 0 mm | - | 48 W/m² | - |
| 1787870678 | 27.78° C | 56% | 1017.6 hPa | 0 mm | - | 52 W/m² | - |
| 1787870378 | 27.78° C | 56% | 1017.7 hPa | 0 mm | - | 52 W/m² | - |
| 1787870074 | 27.78° C | 56% | 1017.4 hPa | 0 mm | - | 54 W/m² | - |
| 1787869772 | 27.78° C | 56% | 1017.4 hPa | 0 mm | - | 53 W/m² | - |
| 1787869467 | 27.78° C | 56% | 1017.6 hPa | 0 mm | - | 55 W/m² | - |
| 1787869161 | 28.33° C | 57% | 1017.5 hPa | 0 mm | - | 57 W/m² | - |
| 1787868861 | 28.33° C | 55% | 1017.6 hPa | 0 mm | - | 70 W/m² | - |
| 1787868559 | 28.33° C | 56% | 1017.3 hPa | 0 mm | - | 62 W/m² | - |
| 1787868259 | 28.33° C | 57% | 1017.4 hPa | 0 mm | - | 62 W/m² | - |
| 1787867954 | 28.33° C | 57% | 1017.8 hPa | 0 mm | - | 124 W/m² | - |
| 1787867650 | 28.33° C | 55% | 1017.6 hPa | 0 mm | - | 265 W/m² | - |
| 1787867350 | 28.33° C | 53% | 1017.6 hPa | 0 mm | - | 99 W/m² | - |
| 1787867046 | 28.33° C | 56% | 1017.7 hPa | 0 mm | - | 154 W/m² | - |
| 1787866741 | 28.33° C | 55% | 1017.4 hPa | 0 mm | - | 74 W/m² | - |
| 1787866440 | 28.33° C | 54% | 1017.4 hPa | 0 mm | - | 86 W/m² | - |
| 1787866134 | 28.33° C | 51% | 1017.8 hPa | 0 mm | - | 78 W/m² | - |
| 1787865834 | 28.33° C | 54% | 1017.7 hPa | 0 mm | - | 100 W/m² | - |
| 1787865529 | 28.33° C | 55% | 1017.8 hPa | 0 mm | - | 77 W/m² | - |
* Rain latest hour (hover to see other rain measurements)
** Current wind speed in m/s (hover to see current wind gust speed)